STARLINK-32655, 62202

Orbit data source: Space-Track

STARLINK-32655, 62202 is a payload satellite owned by SpaceX/Seattle (US) in LEO that was launched on Wed, 04 Dec 2024 UTC via an FALCON 9 launch vehicle from the Air Force Eastern Test Range (AFETR). Payload-class satellites include a variety of spacecraft equipped with specific instruments for various scientific and technological missions. These include communications satellites like Starlink; space stations such as the ISS; scientific satellites like the Hubble; Earth observation satellites from companies like Planet Labs, Umbra, and HawkEye 360; GPS; miniature CubeSats for education and research; and military/defense satellites.

Loading next visibility...
Identifier
62202, 2024-229L
Orbit
LEO
Country
Flag of USUS
Related business
Manufacturer
SpaceX/Seattle
Mission
Operational Commercial Communications
Bus & Motor
STARLINK V2M, Unknown motor
Mass
730 kg wet, ~700 kg dry
Launch date (UTC)
2024-12-04 (2 years ago)
Launch vehicle
FALCON 9
Launch site
Air Force Eastern Test Range (AFETR)
Object type
Payload
Rocket body
Debris
Shape & HBR
Box + 2 Pan, 17.7 m
Radar Cross Section
33.884 m², Large (>1 m²)

Expand to show TLE details & history
Last TLE update: 11 hours ago

TLE from 11 hours ago
0 STARLINK-32655
1 62202U 24229L   26171.38004181  .00010897  00000-0  40481-3 0  9998
2 62202  43.0004  51.0201 0000525  39.8967 320.1923 15.27588331 86263
Epoch: 2026-06-20T09:07Z
TLE epoch observation values (Epoch: 2026-06-20T09:07:15.612Z)
Latitude
-0.00003°
Longitude
5.60952°
Altitude
482.523 km
Speed
7.626 km/s
True Right ascension
03h 24m 04s
True Declination
0° 00' 00"
Sunlit
Object was in daylight at epoch
Visualization orbit readout
Latitude
Unknown
Longitude
Unknown
Altitude
Unknown
Speed
Unknown
Apparent Right ascension
Unknown
Apparent Declination
Unknown
Sunlit
N/A
Visualization observer readout
Local Sidereal Time
07:21:42
Azimuth
Unknown
Elevation
Unknown
Doppler factor
Unknown
Orbital elements
Apogee altitude
485.33 km
Perigee altitude
484.609 km
Semi-major axis
6,863.106 km
Eccentricity
0.00005
Inclination
43.0004°
RAAN
51.0201°
Arg. of periapsis
39.8967°
True anomaly
320.18845°
Mean anomaly
320.1923°
Eccentric anomaly
320.19037°
Mean motion
3.81735 °/min
Orbital period
94.31 mins
BSTAR
0.00040481
Loading maneuver chart data...
Computing Atmospheric mass density...
Loading historical data...
Loading historical data...
Loading historical data...
Loading historical data...
Loading historical data...
Loading historical data...
Loading historical data...

Documentation

Showing up to 5 results
|